Location: Newark
(44.6768°N, 22.5302°E)
Time: 20:59:22
(UTC+00:00)

AO-92 - Pass Details

Date: 02 July 2022
Orbit: 469 x 481 km, 97.4° (Epoch: 13 August)

Event Time Altitude Azimuth Distance (km) Brightness Sun altitude
Exits shadow 19:17:54 - 101° (E) 1,829 ? -8.9°
Reaches altitude 10° 19:18:41 10° 90° (E) 1,656 ? -9.0°
Maximum altitude 19:20:16 13° 64° (ENE) 1,503 ? -9.2°
Drops below altitude 10° 19:21:52 10° 37° (NE) 1,666 ? -9.4°
Sets 19:24:55 0° 8° (N) 2,555 ? -9.8°
